Simultaneous Nadir Overpasses (SNOs) Predictions

Prediction of SNOs between FY3D and METOP-A Satellite Orbit:

Table of predicted SNOs for the next 14.0 days since TLE Epoch: 11/21/2020
Index Date (FY3D) Time (FY3D) Lat,Lon (FY3D) SZA (FY3D ) Date (METOP-A) Time (METOP-A) Lat,Lon (METOP-A) SZA (METOP-A ) Distance(km) Time Diff (sec)
1 11/28/2020 04:50:31 -76.87, -90.53 81.41 11/28/2020 04:51:36 -76.80, -86.89 81.67 92.51 65
2 11/28/2020 05:41:11 76.67, 77.56 98.36 11/28/2020 05:42:20 76.63, 79.78 98.20 57.12 69
3 11/28/2020 06:31:53 -76.56,-114.69 81.77 11/28/2020 06:33:04 -76.51,-113.30 81.90 36.41 71
4 11/28/2020 07:22:34 76.40, 53.21 98.06 11/28/2020 07:23:48 76.33, 53.39 97.97 9.28 74
5 11/28/2020 08:13:17 -76.34,-139.23 82.02 11/28/2020 08:14:29 -76.36,-139.19 82.01 2.48 72
6 11/28/2020 09:04:02 76.36, 28.01 98.02 11/28/2020 09:05:09 76.36, 28.15 98.00 3.58 67
7 11/28/2020 09:54:46 -76.34,-164.60 82.01 11/28/2020 09:55:51 -76.34,-164.60 82.02 0.31 65
8 11/28/2020 10:45:31 76.36, 2.64 98.03 11/28/2020 10:46:31 76.34, 2.74 98.00 3.14 60
9 11/28/2020 11:36:15 -76.33, 170.04 81.99 11/28/2020 11:37:13 -76.32, 169.99 82.02 2.06 58
10 11/28/2020 12:26:59 76.31, -22.56 97.99 11/28/2020 12:27:53 76.32, -22.67 97.99 3.06 54
11 11/28/2020 13:17:44 -76.33, 144.67 81.98 11/28/2020 13:18:34 -76.35, 144.75 81.98 2.44 50
12 11/28/2020 14:08:28 76.31, -47.93 98.00 11/28/2020 14:09:15 76.30, -48.08 97.99 4.00 47
13 11/28/2020 14:59:13 -76.33, 119.30 81.97 11/28/2020 14:59:56 -76.33, 119.34 81.99 1.15 43
14 11/28/2020 15:49:57 76.31, -73.30 98.01 11/28/2020 15:50:36 76.33, -73.32 98.02 2.33 39
15 11/28/2020 16:40:42 -76.33, 93.93 81.96 11/28/2020 16:41:18 -76.31, 93.93 81.99 2.63 36
16 11/28/2020 17:31:26 76.31, -98.66 98.02 11/28/2020 17:31:58 76.31, -98.73 98.02 1.81 32
17 11/28/2020 18:22:11 -76.33, 68.57 81.95 11/28/2020 18:22:39 -76.34, 68.68 81.96 3.10 28
18 11/28/2020 19:12:55 76.31,-124.03 98.03 11/28/2020 19:13:20 76.29,-124.14 98.02 3.40 25
19 11/28/2020 20:03:40 -76.33, 43.20 81.94 11/28/2020 20:04:01 -76.32, 43.28 81.96 2.54 21
20 11/28/2020 20:54:24 76.31,-149.40 98.05 11/28/2020 20:54:41 76.32,-149.39 98.05 1.28 17
21 11/28/2020 21:45:08 -76.28, 18.00 81.98 11/28/2020 21:45:23 -76.30, 17.87 81.96 3.61 15
22 11/28/2020 22:35:53 76.31,-174.77 98.06 11/28/2020 22:36:03 76.30,-174.79 98.05 1.09 10
23 11/28/2020 23:26:38 -76.33, -7.53 81.92 11/28/2020 23:26:44 -76.32, -7.38 81.93 4.15 6
24 11/29/2020 00:17:22 76.30, 159.87 98.07 11/29/2020 00:17:24 76.33, 159.96 98.08 3.33 2
25 11/29/2020 01:08:06 -76.28, -32.74 81.96 11/29/2020 01:08:06 -76.31, -32.78 81.93 2.82 0
26 11/29/2020 01:58:51 76.30, 134.50 98.08 11/29/2020 01:58:46 76.31, 134.55 98.08 1.37 5
27 11/29/2020 02:49:35 -76.28, -58.11 81.95 11/29/2020 02:49:28 -76.29, -58.19 81.94 2.29 7
28 11/29/2020 03:40:20 76.30, 109.13 98.09 11/29/2020 03:40:08 76.29, 109.14 98.08 1.77 12
29 11/29/2020 04:31:04 -76.28, -83.47 81.93 11/29/2020 04:30:50 -76.27, -83.60 81.94 3.57 14
30 11/29/2020 05:21:49 76.30, 83.76 98.10 11/29/2020 05:21:29 76.31, 83.90 98.11 3.69 20
31 11/29/2020 06:12:33 -76.28,-108.84 81.92 11/29/2020 06:12:11 -76.29,-108.85 81.90 1.65 22
32 11/29/2020 07:03:18 76.30, 58.40 98.11 11/29/2020 07:02:51 76.30, 58.49 98.11 2.48 27
33 11/29/2020 07:54:02 -76.28,-134.21 81.91 11/29/2020 07:53:33 -76.28,-134.25 81.91 1.21 29
34 11/29/2020 08:44:47 76.30, 33.03 98.12 11/29/2020 08:44:13 76.28, 33.08 98.10 3.03 34
35 11/29/2020 09:35:31 -76.28,-159.58 81.90 11/29/2020 09:34:55 -76.26,-159.66 81.91 3.23 36
36 11/29/2020 10:26:15 76.25, 7.83 98.08 11/29/2020 10:25:35 76.26, 7.67 98.10 4.01 40
37 11/29/2020 11:17:00 -76.28, 175.06 81.89 11/29/2020 11:16:16 -76.28, 175.09 81.88 1.19 44
38 11/29/2020 12:07:44 76.25, -17.54 98.09 11/29/2020 12:06:56 76.28, -17.57 98.13 3.51 48
39 11/29/2020 12:58:29 -76.28, 149.69 81.88 11/29/2020 12:57:38 -76.26, 149.69 81.88 1.30 51
40 11/29/2020 13:49:13 76.25, -42.91 98.10 11/29/2020 13:48:18 76.26, -42.98 98.13 2.34 55
41 11/29/2020 14:39:58 -76.28, 124.32 81.87 11/29/2020 14:39:00 -76.25, 124.28 81.88 3.49 58
42 11/29/2020 15:30:41 76.25, -68.28 98.11 11/29/2020 15:29:39 76.25, -68.39 98.13 3.01 62
43 11/29/2020 16:21:26 -76.27, 98.95 81.86 11/29/2020 16:20:20 -76.27, 99.03 81.85 2.04 66
44 11/29/2020 17:12:10 76.25, -93.64 98.12 11/29/2020 17:11:00 76.27, -93.64 98.16 2.44 70
45 11/29/2020 18:02:55 -76.27, 73.59 81.85 11/29/2020 18:01:42 -76.25, 73.63 81.85 2.44 73
46 11/29/2020 18:53:37 76.16,-118.69 98.03 11/29/2020 18:52:24 76.16,-119.36 98.08 17.77 73
47 11/29/2020 19:44:19 -76.05, 49.02 82.10 11/29/2020 19:43:08 -76.05, 47.60 82.01 38.03 71
48 11/29/2020 20:35:00 75.88,-143.11 97.73 11/29/2020 20:33:52 75.86,-145.68 97.85 69.67 68
49 11/29/2020 21:25:42 -75.77, 24.58 82.40 11/29/2020 21:24:36 -75.75, 21.30 82.24 89.69 66
